Zurück zum Katalog

COSMOS 589

AktivMilitärLEO
NORAD 6846·PAYLOAD·🇷🇺 Russia

Gestartet Oct 2, 1973 von Plesetsk Cosmodrome

Loading…

Nächste Überflüge (nächste 24 Stunden)

TLE

AktuellSource: Space-Track

Epoche: Sep 14, 2026, 06:52 UTC

1 06846U 73069B   26257.28631391 -.00000013  00000-0  17486-4 0  9999
2 06846  74.0045  11.8653 0046405 105.3723 280.9739 12.53236906422351

Verfolge COSMOS 589 in Echtzeit mit AllMySat

Download on the App Store